TITAN 3C TRANSTAGE DEB, 27793

Orbit data source: Space-Track

TITAN 3C TRANSTAGE DEB, 27793 is space debris in HEO originally from a launch on Tue, 21 Dec 1965 UTC launched from the Air Force Eastern Test Range (AFETR). Debris objects in space refer to the collection of defunct objects orbiting the Earth. Examples of debris include non-operational satellites, rocket bodies, and fragments generated from explosions, collisions, or faulty payload assembly.

Loading next visibility...
Identifier
27793, 1965-108BH
Orbit
HEO
Country
Flag of USUS
Related business
Manufacturer
Unknown
Mission
Spacecraft
Bus & Motor
Unknown
Mass
Unknown
Launch date (UTC)
1965-12-21 (61 years ago)
Launch vehicle
Unknown
Launch site
Air Force Eastern Test Range (AFETR)
Object type
Payload
Rocket body
Debris
Shape & HBR
Unknown shape, 0.1 m
Radar Cross Section
Medium (>0.1 m² and <1 m²)

Expand to show TLE details & history
Last TLE update: 1 day ago

TLE from 1 day ago
0 TITAN 3C TRANSTAGE DEB
1 27793U 65108BH  26254.54194269  .00002884  00000-0  92711-2 0  9991
2 27793  26.5546   6.0239 6522003 147.4576 278.9568  3.14060135139113
Epoch: 2026-09-11T13:00Z
TLE epoch observation values (Epoch: 2026-09-11T13:00:23.848Z)
Latitude
0.00002°
Longitude
-179.64513°
Altitude
18,759.452 km
Speed
3.388 km/s
True Right ascension
00h 24m 04s
True Declination
0° 00' 00"
Sunlit
Object was in daylight at epoch
Visualization orbit readout
Latitude
Unknown
Longitude
Unknown
Altitude
Unknown
Speed
Unknown
Apparent Right ascension
Unknown
Apparent Declination
Unknown
Sunlit
N/A
Visualization observer readout
Local Sidereal Time
14:50:36
Azimuth
Unknown
Elevation
Unknown
Doppler factor
Unknown
Orbital elements
Apogee altitude
26,170.703 km
Perigee altitude
473.621 km
Semi-major axis
19,700.299 km
Eccentricity
0.6522
Inclination
26.5546°
RAAN
6.0239°
Arg. of periapsis
147.4576°
True anomaly
212.62846°
Mean anomaly
278.9568°
Eccentric anomaly
245.07026°
Mean motion
0.78494 °/min
Orbital period
458.64 mins
BSTAR
0.0092711
Loading maneuver chart data...
Computing Atmospheric mass density...

Documentation

Showing up to 5 results
|